Torna al catalogo

OTP-2

AttivoMilitareSSO
NORAD 63235·PAYLOAD·🇺🇸 United States

Lanciato Mar 15, 2025 da Vandenberg Space Force Base

Loading…

Prossimi Passaggi (prossime 24 ore)

TLE

AggiornatoSource: Space-Track

Epoca: Sep 14, 2026, 11:48 UTC

1 63235U 25052AB  26257.49230198  .00006618  00000-0  26763-3 0  9999
2 63235  97.3724 148.5935 0005402 190.8151 169.2971 15.25039566 83473

Traccia OTP-2 in tempo reale con AllMySat

Download on the App Store